Location: Eyeline Observatory
(43.2182°N, 78.8632°W)
Time: 22:27:34
(UTC-04:00)

Envisat - Pass Details

Date: 15 October 2017
Orbit: 764 x 766 km, 98.2° (Epoch: 22 October)

Event Time Altitude Azimuth Distance (km) Brightness Sun altitude
Exits shadow 19:43:02 18° 72° (ENE) 1,796 4.3 -13.7°
Maximum altitude 19:43:40 19° 62° (ENE) 1,775 4.4 -13.8°
Drops below altitude 10° 19:47:08 10° 19° (NNE) 2,310 5.3 -14.4°
Sets 19:50:03 0° 2° (N) 3,241 6.3 -15.0°
